Terminal Aerodrome Forecast
Issued by NWS Lake Charles, LA

Home | Current Version | Previous Version | Text Only | Print | Product List | Glossary On
Versions: 1 2 3 4 5 6 7 8 9 10 11 12 13
000
FTUS44 KLCH 301732
TAFBPT
TAF
KBPT 301732Z 3018/3118 VRB05KT P6SM SCT045 SCT060 BKN210
     FM310100 18003KT P6SM SCT220
     FM311600 18006KT P6SM VCTS SCT026CB BKN220=

USA.gov is the U.S. government's official web portal to all federal, state and local government web resources and services.